Skip Page Navigation
NASA JPL Caltech
NASA Logo - Jet Propulsion Laboratory + View the NASA Portal
+ Center for Near-Earth Object Studies
JPL Home Earth Solar System Stars & Galaxies Technology
JPL Solar System Dynamics
BODIES ORBITS EPHEMERIDES TOOLS PHYSICAL DATA DISCOVERY FAQ SITE MAP
IMPORTANT: The SSD Announcement email list is now available. Major changes are coming in the near future, including possible hostname and/or URL changes. To be notified of such changes, subscribe to this email list.

Please visit this page for more details.


JPL Small-Body Database Browser
Search: [ help ]  
52362 (1993 FS31)
Classification: Main-belt Asteroid          SPK-ID: 2052362
Ephemeris | Orbit Diagram | Orbital Elements | Mission Design | Physical Parameters | Discovery Circumstances ]

[ show orbit diagram ]
Orbital Elements at Epoch 2458600.5 (2019-Apr-27.0) TDB
Reference: JPL 25 (heliocentric ecliptic J2000)
 Element Value Uncertainty (1-sigma)   Units 
e .07323986559417474 3.5704e-08  
a 2.405611992089843 1.0071e-08 au
q 2.229425293117448 8.6849e-08 au
i 4.620568171109901 4.2138e-06 deg
node 51.64646854858007 4.9571e-05 deg
peri 241.3719361032319 6.1199e-05 deg
M 262.1907241802406 3.9401e-05 deg
tp 2458970.766430725445
(2020-May-01.26643073)
0.00015002 TDB
period 1362.814660920244
3.73
8.558e-06
2.343e-08
d
yr
n .2641591775633739 1.6588e-09 deg/d
Q 2.581798691062238 1.0808e-08 au
  Orbit Determination Parameters
   # obs. used (total)      1515  
   data-arc span      9549 days (26.14 yr)  
   first obs. used      1993-03-19  
   last obs. used      2019-05-11  
   planetary ephem.      DE431  
   SB-pert. ephem.      SB431-N16  
   condition code      0  
   norm. resid. RMS      .51388  
   source      ORB  
   producer      Otto Matic  
   solution date      2019-May-30 04:47:04  

Additional Information
 Earth MOID = 1.21709 au 
 Jupiter MOID = 2.52454 au 
 T_jup = 3.515 
[ show covariance matrix ]

Ephemeris | Orbit Diagram | Orbital Elements | Mission Design | Physical Parameters | Discovery Circumstances ]

Physical Parameter Table
Parameter Symbol Value Units Sigma Reference Notes
absolute magnitude H 14.5   n/a MPO337676  

52362 (1993 FS31)          Discovered 1993-Mar-19 by UESAC at La Silla
Reference: 20030216/Numbers.arcLast Updated: 2004-04-19

Alternate Designations
 1993 FS31 = 1998 SO71 
Ephemeris | Orbit Diagram | Orbital Elements | Mission Design | Physical Parameters | Discovery Circumstances ]
ABOUT SSD CREDITS/AWARDS PRIVACY/COPYRIGHT GLOSSARY LINKS
FirstGov 2020-Jan-19 05:39 UT
(server date/time)  
NASA Home Page
Site Manager:   Ryan S. Park
Webmaster  Alan B. Chamberlin